PUA1497 SUMU-SBSG

Flight info

Callsign PUA1497
Flight time 4h 13m
Altitude 35000
Route MOLBI UM540 ANLER/N0485F370 UM540 ANISE UZ23 ILPIR UZ72 EDNES UN866 USVUR UZ78 TOSAD
Aircraft A343/H-SDE2E3FGHIJ4J5M1RWXY/LB1D1

Departure

Time 2026-05-07 11:49
Airport Carrasco General Cesáreo L. Berisso International Airport (SUMU)

Arrival

Time 2026-05-07 16:02
Airport Rio Grande do Norte/São Gonçalo do Amarante–Governador Aluízio Alves International Airport (SBSG)
Time Latitude Longitude Altitude Speed Heading
2026-05-07 11:18 -34.83611 -56.01809 87 ft 0 kts 144°
2026-05-07 11:41 -34.83608 -56.01812 85 ft 2 kts 144°
2026-05-07 11:41 -34.83595 -56.01824 89 ft 2 kts 144°
2026-05-07 11:41 -34.83582 -56.01835 86 ft 2 kts 144°
2026-05-07 11:41 -34.83569 -56.01847 88 ft 2 kts 144°
2026-05-07 11:42 -34.83556 -56.01858 88 ft 2 kts 144°
2026-05-07 11:42 -34.83549 -56.01866 88 ft 2 kts 156°
2026-05-07 11:42 -34.83561 -56.01877 87 ft 1 kts 225°
2026-05-07 11:43 -34.83564 -56.01881 89 ft 5 kts 225°
2026-05-07 11:43 -34.83634 -56.01980 89 ft 22 kts 232°
2026-05-07 11:43 -34.83728 -56.02135 89 ft 24 kts 235°
2026-05-07 11:43 -34.83815 -56.02231 87 ft 14 kts 196°
2026-05-07 11:44 -34.83914 -56.02256 89 ft 15 kts 211°
2026-05-07 11:44 -34.83953 -56.02371 89 ft 16 kts 271°
2026-05-07 11:44 -34.83945 -56.02519 85 ft 19 kts 273°
2026-05-07 11:44 -34.83962 -56.02707 85 ft 27 kts 252°
2026-05-07 11:45 -34.84007 -56.02912 87 ft 23 kts 264°
2026-05-07 11:45 -34.84024 -56.03092 88 ft 19 kts 257°
2026-05-07 11:45 -34.84075 -56.03220 86 ft 15 kts 242°
2026-05-07 11:45 -34.84122 -56.03322 89 ft 12 kts 241°
2026-05-07 11:46 -34.84158 -56.03406 89 ft 11 kts 244°
2026-05-07 11:46 -34.84196 -56.03500 89 ft 14 kts 244°
2026-05-07 11:46 -34.84229 -56.03626 86 ft 17 kts 264°
2026-05-07 11:46 -34.84264 -56.03771 87 ft 19 kts 239°
2026-05-07 11:47 -34.84363 -56.03885 87 ft 21 kts 209°
2026-05-07 11:47 -34.84422 -56.04011 86 ft 17 kts 299°
2026-05-07 11:47 -34.84376 -56.04015 90 ft 3 kts 49°
2026-05-07 11:47 -34.84369 -56.03978 87 ft 7 kts 76°
2026-05-07 11:48 -34.84340 -56.03913 89 ft 19 kts 54°
2026-05-07 11:48 -34.84106 -56.03525 88 ft 93 kts 53°
2026-05-07 11:48 -34.83592 -56.02679 90 ft 153 kts 54°
2026-05-07 11:48 -34.82893 -56.01512 513 ft 174 kts 55°
2026-05-07 11:49 -34.82175 -56.00310 1371 ft 179 kts 51°
2026-05-07 11:49 -34.81427 -55.99018 2084 ft 197 kts 47°
2026-05-07 11:49 -34.80258 -55.98084 2558 ft 211 kts 14°
2026-05-07 11:49 -34.78769 -55.97595 2913 ft 236 kts 17°
2026-05-07 11:50 -34.77273 -55.96525 3133 ft 268 kts 40°
2026-05-07 11:50 -34.75972 -55.94829 3720 ft 273 kts 48°
2026-05-07 11:50 -34.74668 -55.93200 4441 ft 273 kts 40°
2026-05-07 11:50 -34.73138 -55.91768 5029 ft 276 kts 36°
2026-05-07 11:51 -34.71671 -55.90283 5585 ft 280 kts 42°
2026-05-07 11:51 -34.70298 -55.88588 6161 ft 283 kts 44°
2026-05-07 11:51 -34.68836 -55.86968 6721 ft 284 kts 37°
2026-05-07 11:51 -34.67272 -55.85470 7245 ft 288 kts 36°
2026-05-07 11:52 -34.65764 -55.83843 7803 ft 291 kts 41°
2026-05-07 11:52 -34.64306 -55.82113 8302 ft 295 kts 39°
2026-05-07 11:52 -34.62752 -55.80475 8864 ft 296 kts 35°
2026-05-07 11:52 -34.61147 -55.78879 9371 ft 300 kts 36°
2026-05-07 11:53 -34.59593 -55.77157 9881 ft 303 kts 39°
2026-05-07 11:53 -34.58053 -55.75395 10368 ft 305 kts 37°
2026-05-07 11:53 -34.56431 -55.73718 10839 ft 308 kts 34°
2026-05-07 11:53 -34.54741 -55.71994 10897 ft 328 kts 36°
2026-05-07 11:54 -34.53000 -55.70064 10934 ft 349 kts 38°
2026-05-07 11:54 -34.51189 -55.68051 10950 ft 367 kts 37°
2026-05-07 11:54 -34.49196 -55.65978 10980 ft 385 kts 36°
2026-05-07 11:54 -34.47130 -55.63815 11255 ft 395 kts 38°
2026-05-07 11:55 -34.45118 -55.61586 12028 ft 390 kts 38°
2026-05-07 11:55 -34.43068 -55.59368 12327 ft 398 kts 36°
2026-05-07 11:55 -34.40966 -55.57192 13003 ft 397 kts 36°
2026-05-07 11:55 -34.38880 -55.54976 13439 ft 403 kts 37°
2026-05-07 11:56 -34.36794 -55.52687 13957 ft 404 kts 37°
2026-05-07 11:56 -34.34679 -55.50427 14374 ft 408 kts 36°
2026-05-07 11:56 -34.32543 -55.48205 14835 ft 411 kts 35°
2026-05-07 11:56 -34.30384 -55.45906 15314 ft 415 kts 36°
2026-05-07 11:57 -34.28226 -55.43563 15800 ft 419 kts 36°
2026-05-07 11:57 -34.26024 -55.41227 16277 ft 423 kts 35°
2026-05-07 11:57 -34.23794 -55.38896 16801 ft 426 kts 35°
2026-05-07 11:57 -34.21551 -55.36502 17335 ft 430 kts 36°
2026-05-07 11:58 -34.19302 -55.34086 17860 ft 433 kts 36°
2026-05-07 11:58 -34.17023 -55.31683 18319 ft 436 kts 35°
2026-05-07 11:58 -34.14739 -55.29286 18846 ft 435 kts 35°
2026-05-07 11:58 -34.12469 -55.26864 19369 ft 436 kts 36°
2026-05-07 11:59 -34.10193 -55.24438 19833 ft 436 kts 35°
2026-05-07 11:59 -34.07906 -55.22040 20322 ft 435 kts 35°
2026-05-07 11:59 -34.05620 -55.19640 20806 ft 436 kts 35°
2026-05-07 11:59 -34.03348 -55.17222 21255 ft 436 kts 35°
2026-05-07 12:00 -34.01100 -55.14839 21726 ft 436 kts 34°
2026-05-07 12:00 -33.98811 -55.12442 22142 ft 436 kts 34°
2026-05-07 12:00 -33.96510 -55.10031 22498 ft 439 kts 34°
2026-05-07 12:00 -33.94214 -55.07601 22863 ft 441 kts 34°
2026-05-07 12:01 -33.91898 -55.05155 23196 ft 444 kts 34°
2026-05-07 12:01 -33.89559 -55.02713 23476 ft 446 kts 34°
2026-05-07 12:01 -33.87209 -55.00247 23767 ft 448 kts 34°
2026-05-07 12:01 -33.84856 -54.97764 24039 ft 451 kts 34°
2026-05-07 12:02 -33.82484 -54.95280 24301 ft 453 kts 34°
2026-05-07 12:02 -33.80097 -54.92792 24573 ft 455 kts 34°
2026-05-07 12:02 -33.77704 -54.90281 24847 ft 457 kts 34°
2026-05-07 12:02 -33.75305 -54.87761 25120 ft 459 kts 34°
2026-05-07 12:03 -33.72883 -54.85238 25388 ft 461 kts 34°
2026-05-07 12:03 -33.70447 -54.82702 25627 ft 464 kts 34°
2026-05-07 12:03 -33.68042 -54.80182 25868 ft 467 kts 34°
2026-05-07 12:03 -33.65585 -54.77615 26127 ft 469 kts 34°
2026-05-07 12:04 -33.63114 -54.75047 26384 ft 471 kts 34°
2026-05-07 12:04 -33.60624 -54.72457 26632 ft 474 kts 34°
2026-05-07 12:04 -33.58130 -54.69857 26877 ft 477 kts 34°
2026-05-07 12:04 -33.55624 -54.67251 27107 ft 479 kts 34°
2026-05-07 12:05 -33.53094 -54.64628 27321 ft 481 kts 34°
2026-05-07 12:05 -33.50557 -54.61994 27549 ft 484 kts 34°
2026-05-07 12:05 -33.48006 -54.59344 27758 ft 486 kts 34°
2026-05-07 12:05 -33.45441 -54.56690 27949 ft 488 kts 34°
2026-05-07 12:06 -33.42857 -54.54019 28210 ft 490 kts 34°
2026-05-07 12:06 -33.40279 -54.51344 28499 ft 490 kts 34°
2026-05-07 12:06 -33.37706 -54.48681 28784 ft 490 kts 34°
2026-05-07 12:06 -33.35157 -54.46055 29089 ft 490 kts 34°
2026-05-07 12:07 -33.32567 -54.43386 29405 ft 490 kts 34°
2026-05-07 12:07 -33.29986 -54.40721 29701 ft 491 kts 34°
2026-05-07 12:07 -33.27392 -54.38044 29962 ft 491 kts 34°
2026-05-07 12:07 -33.24801 -54.35379 30224 ft 491 kts 34°
2026-05-07 12:08 -33.22213 -54.32719 30501 ft 490 kts 34°
2026-05-07 12:08 -33.19632 -54.30065 30775 ft 490 kts 34°
2026-05-07 12:08 -33.17038 -54.27401 31071 ft 490 kts 34°
2026-05-07 12:08 -33.14456 -54.24752 31358 ft 490 kts 34°
2026-05-07 12:09 -33.11897 -54.22129 31638 ft 489 kts 34°
2026-05-07 12:09 -33.09312 -54.19480 31939 ft 489 kts 34°
2026-05-07 12:09 -33.06725 -54.16828 32247 ft 489 kts 34°
2026-05-07 12:09 -33.04143 -54.14190 32544 ft 488 kts 34°
2026-05-07 12:10 -33.01560 -54.11555 32826 ft 489 kts 34°
2026-05-07 12:10 -32.98977 -54.08913 33125 ft 489 kts 34°
2026-05-07 12:10 -32.96433 -54.06313 33406 ft 489 kts 34°
2026-05-07 12:10 -32.93846 -54.03681 33685 ft 489 kts 34°
2026-05-07 12:11 -32.91259 -54.01047 33952 ft 489 kts 34°
2026-05-07 12:11 -32.88678 -53.98413 34201 ft 489 kts 34°
2026-05-07 12:11 -32.86086 -53.95777 34432 ft 490 kts 34°
2026-05-07 12:11 -32.83495 -53.93151 34660 ft 490 kts 34°
2026-05-07 12:12 -32.80889 -53.90505 34753 ft 495 kts 34°
2026-05-07 12:12 -32.75628 -53.85162 34738 ft 498 kts 34°
2026-05-07 12:13 -32.70347 -53.79819 34740 ft 498 kts 34°
2026-05-07 12:13 -32.65073 -53.74481 34747 ft 499 kts 34°
2026-05-07 12:14 -32.59805 -53.69171 34743 ft 499 kts 34°
2026-05-07 12:14 -32.54521 -53.63838 34740 ft 499 kts 35°
2026-05-07 12:15 -32.49226 -53.58516 34737 ft 499 kts 35°
2026-05-07 12:15 -32.43936 -53.53203 34732 ft 498 kts 35°
2026-05-07 12:16 -32.38678 -53.47924 34718 ft 499 kts 36°
2026-05-07 12:16 -32.33382 -53.42628 34718 ft 498 kts 36°
2026-05-07 12:17 -32.28100 -53.37337 34724 ft 498 kts 36°
2026-05-07 12:17 -32.22784 -53.32040 34736 ft 499 kts 36°
2026-05-07 12:18 -32.17483 -53.26748 34740 ft 499 kts 37°
2026-05-07 12:18 -32.12169 -53.21471 34740 ft 500 kts 37°
2026-05-07 12:19 -32.06848 -53.16174 34747 ft 501 kts 37°
2026-05-07 12:19 -32.01529 -53.10908 34748 ft 503 kts 37°
2026-05-07 12:20 -31.96176 -53.05598 34757 ft 504 kts 37°
2026-05-07 12:20 -31.90786 -53.00275 34761 ft 505 kts 37°
2026-05-07 12:21 -31.85402 -52.94955 34766 ft 506 kts 36°
2026-05-07 12:21 -31.80110 -52.89487 34770 ft 508 kts 41°
2026-05-07 12:22 -31.74584 -52.84374 34771 ft 505 kts 33°
2026-05-07 12:22 -31.72001 -52.81531 34787 ft 512 kts 45°
2026-05-07 12:22 -31.70481 -52.79393 34770 ft 515 kts 49°
2026-05-07 12:23 -31.65393 -52.71643 34783 ft 515 kts 45°
2026-05-07 12:23 -31.61282 -52.66530 34787 ft 514 kts 43°
2026-05-07 12:24 -31.56701 -52.60097 34796 ft 518 kts 48°
2026-05-07 12:24 -31.54225 -52.57082 34801 ft 511 kts 36°
2026-05-07 12:24 -31.51468 -52.54449 34789 ft 512 kts 34°
2026-05-07 12:25 -31.46235 -52.48752 34790 ft 516 kts 40°
2026-05-07 12:25 -31.40881 -52.43192 34797 ft 512 kts 34°
2026-05-07 12:26 -31.35579 -52.37578 34801 ft 516 kts 40°
2026-05-07 12:26 -31.30290 -52.32016 34810 ft 512 kts 34°
2026-05-07 12:27 -31.24950 -52.26445 34810 ft 516 kts 39°
2026-05-07 12:27 -31.19642 -52.20831 34817 ft 512 kts 34°
2026-05-07 12:28 -31.14293 -52.15307 34822 ft 515 kts 39°
2026-05-07 12:28 -31.08992 -52.09683 34816 ft 513 kts 34°
2026-05-07 12:29 -31.03651 -52.04218 34821 ft 515 kts 38°
2026-05-07 12:29 -30.98364 -51.98598 34821 ft 513 kts 34°
2026-05-07 12:30 -30.92970 -51.93117 34829 ft 516 kts 37°
2026-05-07 12:30 -30.87679 -51.87493 34832 ft 513 kts 34°
2026-05-07 12:31 -30.82274 -51.82027 34835 ft 516 kts 37°
2026-05-07 12:31 -30.76984 -51.76416 34836 ft 514 kts 34°
2026-05-07 12:32 -30.71585 -51.70978 34841 ft 515 kts 36°
2026-05-07 12:32 -30.66319 -51.65410 34841 ft 513 kts 34°
2026-05-07 12:33 -30.58296 -51.57185 34842 ft 514 kts 36°
2026-05-07 12:33 -30.52923 -51.51727 34844 ft 512 kts 33°
2026-05-07 12:34 -30.47531 -51.46329 34846 ft 512 kts 34°
2026-05-07 12:34 -30.42129 -51.40948 34859 ft 511 kts 33°
2026-05-07 12:35 -30.36733 -51.35561 34859 ft 512 kts 34°
2026-05-07 12:35 -30.31322 -51.30192 34856 ft 511 kts 33°
2026-05-07 12:36 -30.25947 -51.24834 34849 ft 513 kts 34°
2026-05-07 12:36 -30.20519 -51.19473 34844 ft 513 kts 33°
2026-05-07 12:37 -30.15086 -51.14064 34845 ft 516 kts 34°
2026-05-07 12:37 -30.09616 -51.08682 34841 ft 516 kts 33°
2026-05-07 12:38 -30.04163 -51.03269 34841 ft 518 kts 34°
2026-05-07 12:38 -29.98669 -50.97880 34840 ft 519 kts 33°
2026-05-07 12:39 -29.93204 -50.92476 34853 ft 520 kts 34°
2026-05-07 12:39 -29.87659 -50.87079 34859 ft 518 kts 31°
2026-05-07 12:40 -29.81945 -50.82136 34873 ft 518 kts 30°
2026-05-07 12:40 -29.76224 -50.77078 34891 ft 519 kts 30°
2026-05-07 12:41 -29.70441 -50.72119 34895 ft 519 kts 30°
2026-05-07 12:41 -29.64701 -50.67065 34898 ft 519 kts 30°
2026-05-07 12:42 -29.58904 -50.62100 34907 ft 519 kts 30°
2026-05-07 12:42 -29.53150 -50.57060 34929 ft 519 kts 30°
2026-05-07 12:43 -29.47358 -50.52125 34945 ft 519 kts 30°
2026-05-07 12:43 -29.41605 -50.47124 34945 ft 518 kts 30°
2026-05-07 12:44 -29.35832 -50.42222 34953 ft 516 kts 30°
2026-05-07 12:44 -29.30143 -50.37289 34962 ft 515 kts 30°
2026-05-07 12:45 -29.24396 -50.32425 34971 ft 513 kts 30°
2026-05-07 12:45 -29.18688 -50.27491 34975 ft 513 kts 30°
2026-05-07 12:46 -29.12949 -50.22648 34983 ft 513 kts 30°
2026-05-07 12:46 -29.07245 -50.17732 34971 ft 512 kts 30°
2026-05-07 12:47 -29.01509 -50.12898 34970 ft 513 kts 30°
2026-05-07 12:47 -28.95789 -50.07994 34978 ft 513 kts 30°
2026-05-07 12:48 -28.90044 -50.03153 34978 ft 513 kts 30°
2026-05-07 12:48 -28.84363 -49.98306 34985 ft 514 kts 31°
2026-05-07 12:49 -28.78604 -49.93465 34986 ft 516 kts 30°
2026-05-07 12:49 -28.72832 -49.88548 34984 ft 518 kts 31°
2026-05-07 12:50 -28.67033 -49.83700 34971 ft 516 kts 31°
2026-05-07 12:50 -28.61261 -49.78785 34978 ft 520 kts 31°
2026-05-07 12:51 -28.55448 -49.73929 34983 ft 516 kts 31°
2026-05-07 12:51 -28.49664 -49.69026 35000 ft 520 kts 31°
2026-05-07 12:52 -28.43862 -49.64187 34994 ft 520 kts 31°
2026-05-07 12:52 -28.38036 -49.59276 34999 ft 521 kts 31°
2026-05-07 12:53 -28.32193 -49.54411 35002 ft 522 kts 30°
2026-05-07 12:53 -28.26348 -49.49497 35012 ft 521 kts 30°
2026-05-07 12:54 -28.20500 -49.44652 35020 ft 523 kts 30°
2026-05-07 12:54 -28.14684 -49.39756 34999 ft 525 kts 30°
2026-05-07 12:55 -28.08780 -49.34891 35011 ft 526 kts 30°
2026-05-07 12:55 -28.02937 -49.29881 35022 ft 526 kts 31°
2026-05-07 12:56 -27.97095 -49.24929 35014 ft 524 kts 30°
2026-05-07 12:56 -27.91235 -49.19945 35030 ft 528 kts 31°
2026-05-07 12:57 -27.85299 -49.15101 35031 ft 523 kts 27°
2026-05-07 12:57 -27.79386 -49.10261 35026 ft 527 kts 31°
2026-05-07 12:58 -27.73403 -49.05509 35030 ft 525 kts 27°
2026-05-07 12:58 -27.68321 -49.01446 35037 ft 528 kts 31°
2026-05-07 12:59 -27.62448 -48.96489 35034 ft 525 kts 29°
2026-05-07 12:59 -27.56483 -48.91713 35032 ft 528 kts 31°
2026-05-07 13:00 -27.50603 -48.86743 35029 ft 526 kts 30°
2026-05-07 13:00 -27.44637 -48.81976 35032 ft 528 kts 31°
2026-05-07 13:01 -27.38735 -48.77022 35021 ft 527 kts 30°
2026-05-07 13:01 -27.32761 -48.72239 35022 ft 526 kts 30°
2026-05-07 13:02 -27.26868 -48.67326 35025 ft 527 kts 31°
2026-05-07 13:02 -27.20961 -48.62475 35021 ft 527 kts 32°
2026-05-07 13:03 -27.15119 -48.57486 35016 ft 526 kts 30°
2026-05-07 13:03 -27.09106 -48.52836 35007 ft 526 kts 31°
2026-05-07 13:04 -27.03289 -48.47934 35008 ft 526 kts 30°
2026-05-07 13:04 -26.97272 -48.43280 34995 ft 526 kts 31°
2026-05-07 13:05 -26.91408 -48.38364 35001 ft 526 kts 31°
2026-05-07 13:05 -26.85392 -48.33710 35022 ft 526 kts 31°
2026-05-07 13:06 -26.79521 -48.28815 35020 ft 525 kts 31°
2026-05-07 13:06 -26.73521 -48.24171 35022 ft 524 kts 31°
2026-05-07 13:07 -26.67662 -48.19307 35020 ft 524 kts 32°
2026-05-07 13:07 -26.61697 -48.14638 35025 ft 523 kts 31°
2026-05-07 13:08 -26.55832 -48.09804 35026 ft 524 kts 32°
2026-05-07 13:08 -26.49872 -48.05130 35029 ft 524 kts 31°
2026-05-07 13:09 -26.43978 -48.00303 35027 ft 526 kts 32°
2026-05-07 13:09 -26.38003 -47.95613 35030 ft 525 kts 31°
2026-05-07 13:10 -26.32082 -47.90795 35030 ft 527 kts 32°
2026-05-07 13:10 -26.27107 -47.86873 35033 ft 526 kts 30°
2026-05-07 13:11 -26.20189 -47.81309 35027 ft 528 kts 32°
2026-05-07 13:11 -26.14192 -47.76595 35029 ft 527 kts 31°
2026-05-07 13:12 -26.09205 -47.72589 35033 ft 528 kts 32°
2026-05-07 13:12 -26.03261 -47.67878 35029 ft 528 kts 31°
2026-05-07 13:13 -25.97276 -47.63119 35029 ft 529 kts 33°
2026-05-07 13:13 -25.91284 -47.58376 35030 ft 528 kts 31°
2026-05-07 13:14 -25.85297 -47.53635 35031 ft 530 kts 33°
2026-05-07 13:14 -25.79293 -47.48885 35032 ft 529 kts 31°
2026-05-07 13:15 -25.73287 -47.44149 35036 ft 530 kts 33°
2026-05-07 13:15 -25.67279 -47.39405 35034 ft 530 kts 31°
2026-05-07 13:16 -25.61274 -47.34682 35037 ft 530 kts 33°
2026-05-07 13:16 -25.55254 -47.29941 35043 ft 530 kts 31°
2026-05-07 13:17 -25.49228 -47.25215 35040 ft 531 kts 33°
2026-05-07 13:17 -25.43206 -47.20480 35047 ft 531 kts 32°
2026-05-07 13:18 -25.37170 -47.15760 35034 ft 531 kts 33°
2026-05-07 13:18 -25.31178 -47.11061 35042 ft 531 kts 32°
2026-05-07 13:19 -25.25135 -47.06346 35033 ft 532 kts 33°
2026-05-07 13:19 -25.19106 -47.01630 35037 ft 531 kts 32°
2026-05-07 13:20 -25.13034 -46.97053 35036 ft 528 kts 28°
2026-05-07 13:20 -25.06697 -46.92932 35042 ft 531 kts 28°
2026-05-07 13:21 -25.00319 -46.88683 35033 ft 537 kts 27°
2026-05-07 13:21 -24.93840 -46.84503 35278 ft 541 kts 28°
2026-05-07 13:22 -24.90627 -46.82353 35525 ft 540 kts 28°
2026-05-07 13:22 -24.87393 -46.80224 35720 ft 541 kts 27°
2026-05-07 13:22 -24.84140 -46.78146 35903 ft 541 kts 27°
2026-05-07 13:22 -24.80935 -46.76067 36088 ft 542 kts 28°
2026-05-07 13:23 -24.77709 -46.73914 36277 ft 543 kts 28°
2026-05-07 13:23 -24.74464 -46.71782 36455 ft 543 kts 27°
2026-05-07 13:23 -24.71202 -46.69702 36641 ft 543 kts 27°
2026-05-07 13:23 -24.67941 -46.67595 36803 ft 544 kts 28°
2026-05-07 13:24 -24.64710 -46.65443 36996 ft 544 kts 28°
2026-05-07 13:24 -24.61419 -46.63382 37038 ft 543 kts 21°
2026-05-07 13:24 -24.57837 -46.62192 37076 ft 534 kts
2026-05-07 13:24 -24.54167 -46.61687 37034 ft 532 kts
2026-05-07 13:25 -24.46833 -46.60693 37034 ft 530 kts
2026-05-07 13:25 -24.39522 -46.59703 37039 ft 529 kts
2026-05-07 13:26 -24.32198 -46.58693 37043 ft 530 kts
2026-05-07 13:26 -24.24881 -46.57699 37049 ft 529 kts
2026-05-07 13:27 -24.17573 -46.56697 37048 ft 530 kts
2026-05-07 13:27 -24.10249 -46.55702 37047 ft 529 kts
2026-05-07 13:28 -24.02925 -46.54704 37046 ft 531 kts
2026-05-07 13:28 -23.95595 -46.53702 37044 ft 530 kts
2026-05-07 13:29 -23.88292 -46.52630 37039 ft 533 kts
2026-05-07 13:29 -23.81166 -46.50403 37046 ft 537 kts 12°
2026-05-07 13:30 -23.73905 -46.48390 37144 ft 535 kts 10°
2026-05-07 13:30 -23.66786 -46.46179 37151 ft 536 kts 13°
2026-05-07 13:31 -23.59548 -46.44151 37166 ft 535 kts 10°
2026-05-07 13:31 -23.52359 -46.41957 37187 ft 537 kts 13°
2026-05-07 13:32 -23.45145 -46.39914 37190 ft 535 kts 10°
2026-05-07 13:32 -23.37928 -46.37941 37201 ft 534 kts
2026-05-07 13:33 -23.30658 -46.36160 37164 ft 535 kts
2026-05-07 13:33 -23.23389 -46.34442 37151 ft 534 kts
2026-05-07 13:34 -23.12466 -46.31798 37129 ft 536 kts
2026-05-07 13:35 -23.05177 -46.30136 37128 ft 535 kts
2026-05-07 13:35 -22.97912 -46.28344 37127 ft 535 kts
2026-05-07 13:36 -22.90667 -46.26688 37147 ft 535 kts
2026-05-07 13:36 -22.83391 -46.24908 37140 ft 535 kts
2026-05-07 13:37 -22.76148 -46.23052 37123 ft 538 kts 20°
2026-05-07 13:37 -22.72876 -46.21089 37196 ft 541 kts 34°
2026-05-07 13:37 -22.69823 -46.18663 37121 ft 543 kts 37°
2026-05-07 13:38 -22.63933 -46.13577 37148 ft 542 kts 39°
2026-05-07 13:38 -22.58083 -46.08428 37150 ft 541 kts 39°
2026-05-07 13:39 -22.52257 -46.03259 37151 ft 542 kts 39°
2026-05-07 13:39 -22.46403 -45.98124 37153 ft 541 kts 40°
2026-05-07 13:40 -22.40579 -45.92967 37150 ft 541 kts 39°
2026-05-07 13:40 -22.34715 -45.87834 37172 ft 541 kts 40°
2026-05-07 13:41 -22.28890 -45.82689 37138 ft 541 kts 39°
2026-05-07 13:41 -22.23054 -45.77645 37171 ft 540 kts 39°
2026-05-07 13:42 -22.17177 -45.72566 37134 ft 541 kts 39°
2026-05-07 13:42 -22.11290 -45.67485 37167 ft 541 kts 39°
2026-05-07 13:43 -22.05414 -45.62417 37136 ft 541 kts 39°
2026-05-07 13:43 -21.99531 -45.57353 37162 ft 541 kts 39°
2026-05-07 13:44 -21.93653 -45.52294 37164 ft 540 kts 39°
2026-05-07 13:44 -21.87778 -45.47243 37135 ft 541 kts 39°
2026-05-07 13:45 -21.81893 -45.42193 37165 ft 540 kts 40°
2026-05-07 13:45 -21.76049 -45.37181 37161 ft 540 kts 39°
2026-05-07 13:46 -21.70169 -45.32143 37139 ft 540 kts 39°
2026-05-07 13:46 -21.64290 -45.27114 37171 ft 540 kts 39°
2026-05-07 13:47 -21.58413 -45.22086 37139 ft 540 kts 39°
2026-05-07 13:47 -21.52533 -45.17071 37171 ft 540 kts 39°
2026-05-07 13:48 -21.46654 -45.12048 37135 ft 540 kts 40°
2026-05-07 13:48 -21.40767 -45.07040 37171 ft 540 kts 40°
2026-05-07 13:49 -21.34880 -45.02020 37147 ft 540 kts 40°
2026-05-07 13:49 -21.29028 -44.97054 37172 ft 539 kts 40°
2026-05-07 13:50 -21.23105 -44.92013 37142 ft 540 kts 40°
2026-05-07 13:50 -21.17259 -44.87061 37147 ft 539 kts 40°
2026-05-07 13:51 -21.11375 -44.82064 37173 ft 539 kts 40°
2026-05-07 13:51 -21.05474 -44.77080 37143 ft 540 kts 39°
2026-05-07 13:52 -20.99345 -44.72415 37171 ft 540 kts 37°
2026-05-07 13:52 -20.93274 -44.67669 37140 ft 540 kts 37°
2026-05-07 13:53 -20.87145 -44.63096 37174 ft 540 kts 37°
2026-05-07 13:53 -20.81064 -44.58356 37144 ft 541 kts 37°
2026-05-07 13:54 -20.74902 -44.53761 37175 ft 540 kts 37°
2026-05-07 13:54 -20.68825 -44.49035 37170 ft 540 kts 37°
2026-05-07 13:55 -20.62654 -44.44431 37149 ft 541 kts 37°
2026-05-07 13:55 -20.56573 -44.39727 37175 ft 540 kts 37°
2026-05-07 13:56 -20.51439 -44.35895 37169 ft 541 kts 37°
2026-05-07 13:56 -20.45325 -44.31202 37165 ft 540 kts 38°
2026-05-07 13:57 -20.39300 -44.26424 37164 ft 540 kts 37°
2026-05-07 13:57 -20.32241 -44.20939 37143 ft 540 kts 40°
2026-05-07 13:58 -20.27282 -44.16896 37171 ft 540 kts 38°
2026-05-07 13:58 -20.21187 -44.12213 37141 ft 541 kts 39°
2026-05-07 13:59 -20.15224 -44.07356 37176 ft 540 kts 38°
2026-05-07 13:59 -20.09122 -44.02676 37196 ft 540 kts 39°
2026-05-07 14:00 -20.03142 -43.97826 37199 ft 539 kts 38°
2026-05-07 14:00 -19.97050 -43.93168 37242 ft 541 kts 39°
2026-05-07 14:01 -19.91056 -43.88324 37246 ft 540 kts 39°
2026-05-07 14:01 -19.84923 -43.83674 37245 ft 541 kts 36°
2026-05-07 14:02 -19.78785 -43.79138 37226 ft 540 kts 38°
2026-05-07 14:02 -19.72547 -43.74663 37210 ft 542 kts 35°
2026-05-07 14:03 -19.66337 -43.70138 37204 ft 541 kts 38°
2026-05-07 14:03 -19.60101 -43.65653 37208 ft 541 kts 35°
2026-05-07 14:04 -19.53892 -43.61155 37160 ft 541 kts 38°
2026-05-07 14:04 -19.47655 -43.56658 37170 ft 541 kts 35°
2026-05-07 14:05 -19.41431 -43.52177 37148 ft 541 kts 38°
2026-05-07 14:05 -19.35206 -43.47679 37172 ft 542 kts 35°
2026-05-07 14:06 -19.28625 -43.43815 37193 ft 542 kts 19°
2026-05-07 14:06 -19.21395 -43.41361 37181 ft 545 kts 19°
2026-05-07 14:07 -19.14265 -43.38770 37153 ft 546 kts 18°
2026-05-07 14:07 -19.07034 -43.36339 37152 ft 545 kts 19°
2026-05-07 14:08 -18.99862 -43.33728 37154 ft 545 kts 18°
2026-05-07 14:08 -18.92628 -43.31303 37162 ft 545 kts 19°
2026-05-07 14:09 -18.85455 -43.28697 37165 ft 545 kts 19°
2026-05-07 14:09 -18.78219 -43.26273 37145 ft 545 kts 19°
2026-05-07 14:10 -18.71043 -43.23674 37159 ft 546 kts 19°
2026-05-07 14:10 -18.63795 -43.21285 37156 ft 545 kts 17°
2026-05-07 14:11 -18.56543 -43.18900 37167 ft 545 kts 18°
2026-05-07 14:11 -18.49295 -43.16521 37159 ft 545 kts 17°
2026-05-07 14:12 -18.42051 -43.14140 37164 ft 546 kts 18°
2026-05-07 14:12 -18.34932 -43.11525 37161 ft 545 kts 22°
2026-05-07 14:13 -18.27803 -43.08776 37159 ft 545 kts 20°
2026-05-07 14:13 -18.20699 -43.05945 37155 ft 546 kts 22°
2026-05-07 14:14 -18.13568 -43.03180 37158 ft 546 kts 20°
2026-05-07 14:14 -18.06454 -43.00363 37159 ft 546 kts 22°
2026-05-07 14:15 -17.99332 -42.97595 37154 ft 546 kts 20°
2026-05-07 14:15 -17.92221 -42.94795 37158 ft 545 kts 22°
2026-05-07 14:16 -17.85102 -42.92025 37154 ft 546 kts 20°
2026-05-07 14:16 -17.78029 -42.89249 37157 ft 546 kts 22°
2026-05-07 14:17 -17.70902 -42.86477 37151 ft 546 kts 20°
2026-05-07 14:17 -17.63770 -42.83686 37145 ft 546 kts 22°
2026-05-07 14:18 -17.56648 -42.80919 37149 ft 546 kts 20°
2026-05-07 14:18 -17.49524 -42.78136 37141 ft 546 kts 22°
2026-05-07 14:19 -17.42396 -42.75369 37144 ft 546 kts 20°
2026-05-07 14:19 -17.35326 -42.72623 37142 ft 545 kts 22°
2026-05-07 14:20 -17.28210 -42.69856 37133 ft 546 kts 20°
2026-05-07 14:20 -17.21087 -42.67104 37141 ft 545 kts 21°
2026-05-07 14:21 -17.13976 -42.64337 37142 ft 546 kts 20°
2026-05-07 14:21 -17.06836 -42.61588 37137 ft 546 kts 21°
2026-05-07 14:22 -16.99695 -42.58806 37128 ft 547 kts 20°
2026-05-07 14:22 -16.92563 -42.56076 37123 ft 546 kts 21°
2026-05-07 14:23 -16.85438 -42.53295 37128 ft 547 kts 20°
2026-05-07 14:23 -16.78343 -42.50587 37124 ft 547 kts 21°
2026-05-07 14:24 -16.71218 -42.47808 37129 ft 547 kts 20°
2026-05-07 14:24 -16.64065 -42.45085 37130 ft 547 kts 21°
2026-05-07 14:25 -16.56932 -42.42299 37130 ft 547 kts 21°
2026-05-07 14:25 -16.49771 -42.39574 37132 ft 547 kts 21°
2026-05-07 14:26 -16.42680 -42.36817 37125 ft 546 kts 21°
2026-05-07 14:26 -16.35536 -42.34106 37129 ft 547 kts 21°
2026-05-07 14:27 -16.28409 -42.31338 37128 ft 546 kts 21°
2026-05-07 14:27 -16.21263 -42.28629 37131 ft 546 kts 21°
2026-05-07 14:28 -16.14232 -42.25757 37131 ft 544 kts 27°
2026-05-07 14:28 -16.07399 -42.22221 37119 ft 545 kts 27°
2026-05-07 14:29 -16.00592 -42.18848 37127 ft 545 kts 27°
2026-05-07 14:29 -15.93809 -42.15332 37136 ft 545 kts 27°
2026-05-07 14:30 -15.86968 -42.11945 37134 ft 545 kts 27°
2026-05-07 14:30 -15.80174 -42.08431 37138 ft 545 kts 27°
2026-05-07 14:31 -15.73332 -42.05044 37132 ft 545 kts 27°
2026-05-07 14:31 -15.66540 -42.01542 37132 ft 545 kts 27°
2026-05-07 14:32 -15.59684 -41.98149 37131 ft 545 kts 26°
2026-05-07 14:32 -15.52949 -41.94685 37132 ft 544 kts 27°
2026-05-07 14:33 -15.46107 -41.91298 37132 ft 544 kts 26°
2026-05-07 14:33 -15.39318 -41.87817 37129 ft 544 kts 27°
2026-05-07 14:34 -15.32486 -41.84435 37125 ft 544 kts 26°
2026-05-07 14:34 -15.25707 -41.80972 37122 ft 543 kts 27°
2026-05-07 14:35 -15.18919 -41.77609 37122 ft 543 kts 26°
2026-05-07 14:35 -15.12138 -41.74156 37115 ft 542 kts 27°
2026-05-07 14:36 -15.05331 -41.70784 37112 ft 543 kts 26°
2026-05-07 14:36 -14.98550 -41.67339 37108 ft 543 kts 27°
2026-05-07 14:37 -14.91729 -41.63962 37104 ft 543 kts 26°
2026-05-07 14:37 -14.81549 -41.58815 37107 ft 543 kts 26°
2026-05-07 14:38 -14.74724 -41.55455 37102 ft 543 kts 27°
2026-05-07 14:38 -14.67984 -41.52031 37099 ft 543 kts 26°
2026-05-07 14:39 -14.61165 -41.48675 37093 ft 542 kts 27°
2026-05-07 14:39 -14.54388 -41.45242 37092 ft 543 kts 26°
2026-05-07 14:40 -14.47568 -41.41885 37087 ft 542 kts 27°
2026-05-07 14:40 -14.40788 -41.38459 37080 ft 543 kts 26°
2026-05-07 14:41 -14.33978 -41.35109 37085 ft 542 kts 26°
2026-05-07 14:41 -14.27204 -41.31694 37078 ft 542 kts 26°
2026-05-07 14:42 -14.20405 -41.28356 37081 ft 541 kts 26°
2026-05-07 14:42 -14.13631 -41.24937 37083 ft 542 kts 26°
2026-05-07 14:43 -14.06864 -41.21626 37080 ft 541 kts 26°
2026-05-07 14:43 -14.00094 -41.18210 37079 ft 541 kts 26°
2026-05-07 14:44 -13.93287 -41.14888 37079 ft 541 kts 26°
2026-05-07 14:44 -13.86525 -41.11479 37087 ft 540 kts 26°
2026-05-07 14:45 -13.79732 -41.08165 37083 ft 540 kts 26°
2026-05-07 14:45 -13.73033 -41.04791 37083 ft 540 kts 25°
2026-05-07 14:46 -13.66240 -41.01496 37098 ft 540 kts 26°
2026-05-07 14:46 -13.59489 -40.98084 37081 ft 540 kts 25°
2026-05-07 14:47 -13.53785 -40.95331 37087 ft 540 kts 25°
2026-05-07 14:47 -13.47039 -40.91939 37081 ft 540 kts 26°
2026-05-07 14:48 -13.40300 -40.88666 37075 ft 539 kts 25°
2026-05-07 14:48 -13.33557 -40.85287 37070 ft 539 kts 26°
2026-05-07 14:49 -13.26779 -40.81993 37065 ft 539 kts 25°
2026-05-07 14:49 -13.20031 -40.78624 37071 ft 539 kts 26°
2026-05-07 14:50 -13.13251 -40.75323 37058 ft 539 kts 24°
2026-05-07 14:50 -13.06502 -40.71960 37063 ft 539 kts 25°
2026-05-07 14:51 -12.99732 -40.68665 37059 ft 539 kts 24°
2026-05-07 14:51 -12.92989 -40.65311 37060 ft 539 kts 25°
2026-05-07 14:52 -12.86206 -40.62011 37048 ft 538 kts 24°
2026-05-07 14:52 -12.79497 -40.58681 37056 ft 538 kts 25°
2026-05-07 14:53 -12.72746 -40.55397 37055 ft 538 kts 24°
2026-05-07 14:53 -12.66001 -40.52059 37061 ft 538 kts 25°
2026-05-07 14:54 -12.59231 -40.48771 37057 ft 537 kts 24°
2026-05-07 14:54 -12.52500 -40.45448 37058 ft 537 kts 25°
2026-05-07 14:55 -12.45764 -40.42174 37052 ft 537 kts 24°
2026-05-07 14:55 -12.39018 -40.38854 37047 ft 536 kts 25°
2026-05-07 14:56 -12.32292 -40.35584 37056 ft 535 kts 23°
2026-05-07 14:56 -12.25589 -40.32291 37062 ft 535 kts 24°
2026-05-07 14:57 -12.18913 -40.29048 37057 ft 534 kts 23°
2026-05-07 14:57 -12.12205 -40.25758 37059 ft 535 kts 24°
2026-05-07 14:58 -12.05485 -40.22496 37057 ft 534 kts 23°
2026-05-07 14:58 -11.98774 -40.19207 37065 ft 533 kts 24°
2026-05-07 14:59 -11.92078 -40.15963 37057 ft 532 kts 23°
2026-05-07 14:59 -11.85433 -40.12709 37063 ft 532 kts 24°
2026-05-07 15:00 -11.78753 -40.09475 37056 ft 531 kts 23°
2026-05-07 15:00 -11.72081 -40.06212 37056 ft 532 kts 24°
2026-05-07 15:01 -11.65396 -40.02981 37053 ft 531 kts 22°
2026-05-07 15:01 -11.58749 -39.99729 37046 ft 530 kts 23°
2026-05-07 15:02 -11.52085 -39.96515 37046 ft 529 kts 22°
2026-05-07 15:02 -11.45458 -39.93271 37047 ft 528 kts 23°
2026-05-07 15:03 -11.38809 -39.90072 37040 ft 528 kts 22°
2026-05-07 15:03 -11.32197 -39.86832 37041 ft 527 kts 23°
2026-05-07 15:04 -11.25566 -39.83649 37042 ft 526 kts 22°
2026-05-07 15:04 -11.19009 -39.80441 37030 ft 525 kts 23°
2026-05-07 15:05 -11.12410 -39.77274 37030 ft 524 kts 22°
2026-05-07 15:05 -11.05838 -39.74065 37034 ft 523 kts 22°
2026-05-07 15:06 -10.99265 -39.70915 37031 ft 522 kts 22°
2026-05-07 15:06 -10.92717 -39.67715 37033 ft 522 kts 22°
2026-05-07 15:07 -10.86153 -39.64574 37034 ft 521 kts 22°
2026-05-07 15:07 -10.79596 -39.61373 37018 ft 520 kts 22°
2026-05-07 15:08 -10.73050 -39.58242 37019 ft 519 kts 22°
2026-05-07 15:08 -10.66534 -39.55070 37024 ft 519 kts 22°
2026-05-07 15:09 -10.60049 -39.51968 37032 ft 518 kts 22°
2026-05-07 15:09 -10.53549 -39.48806 37024 ft 517 kts 22°
2026-05-07 15:10 -10.47032 -39.45694 37030 ft 516 kts 22°
2026-05-07 15:10 -10.40549 -39.42543 37023 ft 516 kts 21°
2026-05-07 15:11 -10.34062 -39.39433 37026 ft 515 kts 22°
2026-05-07 15:11 -10.27582 -39.36285 37016 ft 515 kts 21°
2026-05-07 15:12 -10.21134 -39.33197 37019 ft 515 kts 21°
2026-05-07 15:12 -10.14668 -39.30079 37022 ft 514 kts 21°
2026-05-07 15:13 -10.08192 -39.26976 37003 ft 514 kts 21°
2026-05-07 15:13 -10.01743 -39.23868 37006 ft 513 kts 21°
2026-05-07 15:14 -9.95284 -39.20781 37018 ft 512 kts 21°
2026-05-07 15:14 -9.88844 -39.17678 36998 ft 512 kts 21°
2026-05-07 15:15 -9.82401 -39.14618 37010 ft 511 kts 20°
2026-05-07 15:15 -9.75974 -39.11693 37007 ft 509 kts 20°
2026-05-07 15:16 -9.69541 -39.08683 36999 ft 509 kts 20°
2026-05-07 15:16 -9.63091 -39.05734 37002 ft 508 kts 20°
2026-05-07 15:17 -9.56674 -39.02737 37003 ft 508 kts 20°
2026-05-07 15:17 -9.50238 -38.99796 37006 ft 507 kts 20°
2026-05-07 15:18 -9.43823 -38.96807 37007 ft 507 kts 20°
2026-05-07 15:18 -9.37400 -38.93869 37003 ft 506 kts 20°
2026-05-07 15:19 -9.30994 -38.90894 37000 ft 506 kts 20°
2026-05-07 15:19 -9.24589 -38.87959 37003 ft 505 kts 20°
2026-05-07 15:20 -9.18185 -38.84991 36995 ft 505 kts 20°
2026-05-07 15:20 -9.11782 -38.82060 36999 ft 504 kts 20°
2026-05-07 15:21 -9.05449 -38.79126 36996 ft 504 kts 20°
2026-05-07 15:21 -8.99047 -38.76196 36991 ft 504 kts 20°
2026-05-07 15:22 -8.92677 -38.73250 36989 ft 503 kts 20°
2026-05-07 15:22 -8.86308 -38.70337 36988 ft 501 kts 20°
2026-05-07 15:23 -8.79967 -38.67406 36989 ft 501 kts 20°
2026-05-07 15:23 -8.73614 -38.64502 36993 ft 500 kts 20°
2026-05-07 15:24 -8.67273 -38.61574 36985 ft 501 kts 20°
2026-05-07 15:24 -8.60925 -38.58676 36985 ft 501 kts 20°
2026-05-07 15:25 -8.54601 -38.55754 36980 ft 499 kts 20°
2026-05-07 15:25 -8.48300 -38.52883 36985 ft 499 kts 20°
2026-05-07 15:26 -8.41975 -38.49966 36978 ft 499 kts 20°
2026-05-07 15:26 -8.35642 -38.47080 36983 ft 499 kts 20°
2026-05-07 15:27 -8.29321 -38.44166 36982 ft 499 kts 20°
2026-05-07 15:27 -8.22996 -38.41286 36987 ft 498 kts 20°
2026-05-07 15:28 -8.16730 -38.38399 36980 ft 498 kts 20°
2026-05-07 15:28 -8.10377 -38.35504 36982 ft 498 kts 20°
2026-05-07 15:29 -8.04071 -38.32604 36980 ft 497 kts 20°
2026-05-07 15:29 -7.97810 -38.29751 36982 ft 497 kts 20°
2026-05-07 15:30 -7.91519 -38.26864 36985 ft 497 kts 20°
2026-05-07 15:30 -7.85218 -38.23987 36978 ft 496 kts 20°
2026-05-07 15:31 -7.78936 -38.21088 36978 ft 497 kts 23°
2026-05-07 15:31 -7.76075 -38.19102 37009 ft 505 kts 40°
2026-05-07 15:31 -7.73686 -38.16478 36965 ft 510 kts 47°
2026-05-07 15:32 -7.69130 -38.11009 36966 ft 508 kts 46°
2026-05-07 15:32 -7.64542 -38.05589 36969 ft 508 kts 47°
2026-05-07 15:33 -7.59982 -38.00146 36970 ft 508 kts 46°
2026-05-07 15:33 -7.56164 -37.95657 36972 ft 507 kts 47°
2026-05-07 15:34 -7.50877 -37.89347 36973 ft 506 kts 46°
2026-05-07 15:34 -7.47039 -37.84834 36965 ft 506 kts 47°
2026-05-07 15:35 -7.42527 -37.79444 36969 ft 505 kts 46°
2026-05-07 15:35 -7.37958 -37.74068 36966 ft 504 kts 47°
2026-05-07 15:36 -7.33429 -37.68668 36960 ft 503 kts 46°
2026-05-07 15:36 -7.28876 -37.63308 36978 ft 502 kts 47°
2026-05-07 15:37 -7.24365 -37.57945 36957 ft 501 kts 46°
2026-05-07 15:37 -7.19865 -37.52634 36956 ft 501 kts 47°
2026-05-07 15:38 -7.15385 -37.47266 36967 ft 500 kts 46°
2026-05-07 15:38 -7.10870 -37.41934 36961 ft 500 kts 47°
2026-05-07 15:39 -7.06387 -37.36571 36942 ft 499 kts 46°
2026-05-07 15:39 -7.01890 -37.31256 36972 ft 498 kts 47°
2026-05-07 15:40 -6.97516 -37.25838 36931 ft 501 kts 56°
2026-05-07 15:40 -6.94267 -37.19585 36929 ft 504 kts 59°
2026-05-07 15:41 -6.90914 -37.13454 36963 ft 503 kts 59°
2026-05-07 15:41 -6.87706 -37.07191 36958 ft 503 kts 59°
2026-05-07 15:42 -6.84345 -37.01017 36935 ft 502 kts 59°
2026-05-07 15:42 -6.81127 -36.94773 36963 ft 501 kts 59°
2026-05-07 15:43 -6.77793 -36.88627 36954 ft 500 kts 59°
2026-05-07 15:43 -6.74578 -36.82418 36938 ft 500 kts 60°
2026-05-07 15:44 -6.71265 -36.76293 36960 ft 497 kts 59°
2026-05-07 15:44 -6.68087 -36.70178 36934 ft 489 kts 59°
2026-05-07 15:45 -6.64883 -36.64244 36961 ft 484 kts 59°
2026-05-07 15:45 -6.61733 -36.58258 36940 ft 481 kts 56°
2026-05-07 15:46 -6.57773 -36.52977 35723 ft 477 kts 48°
2026-05-07 15:46 -6.55716 -36.50311 34746 ft 485 kts 51°
2026-05-07 15:46 -6.53748 -36.47550 34050 ft 486 kts 52°
2026-05-07 15:47 -6.51749 -36.44831 33510 ft 480 kts 50°
2026-05-07 15:47 -6.49687 -36.42214 32910 ft 477 kts 49°
2026-05-07 15:47 -6.47652 -36.39574 32274 ft 476 kts 51°
2026-05-07 15:47 -6.45700 -36.36872 31690 ft 474 kts 52°
2026-05-07 15:48 -6.43740 -36.34211 31112 ft 472 kts 50°
2026-05-07 15:48 -6.41717 -36.31618 30544 ft 471 kts 50°
2026-05-07 15:48 -6.39721 -36.29021 29969 ft 470 kts 51°
2026-05-07 15:48 -6.37793 -36.26376 29360 ft 467 kts 52°
2026-05-07 15:49 -6.35873 -36.23774 28933 ft 460 kts 51°
2026-05-07 15:49 -6.33915 -36.21249 28440 ft 455 kts 50°
2026-05-07 15:49 -6.31991 -36.18742 27967 ft 450 kts 51°
2026-05-07 15:49 -6.30137 -36.16218 27501 ft 445 kts 51°
2026-05-07 15:50 -6.28319 -36.13764 27068 ft 440 kts 50°
2026-05-07 15:50 -6.26431 -36.11313 26619 ft 436 kts 50°
2026-05-07 15:50 -6.24618 -36.08941 26208 ft 431 kts 50°
2026-05-07 15:50 -6.22838 -36.06537 25805 ft 427 kts 51°
2026-05-07 15:51 -6.21066 -36.04159 25400 ft 422 kts 50°
2026-05-07 15:51 -6.19281 -36.01831 24999 ft 418 kts 50°
2026-05-07 15:51 -6.17524 -35.99522 24610 ft 414 kts 50°
2026-05-07 15:51 -6.15807 -35.97210 24234 ft 410 kts 50°
2026-05-07 15:52 -6.14094 -35.94926 23864 ft 406 kts 50°
2026-05-07 15:52 -6.12378 -35.92684 23509 ft 403 kts 50°
2026-05-07 15:52 -6.10692 -35.90456 23072 ft 400 kts 50°
2026-05-07 15:52 -6.09027 -35.88222 22602 ft 398 kts 51°
2026-05-07 15:53 -6.07367 -35.86020 22204 ft 395 kts 50°
2026-05-07 15:53 -6.05702 -35.83837 21791 ft 392 kts 50°
2026-05-07 15:53 -6.04059 -35.81661 21375 ft 390 kts 51°
2026-05-07 15:53 -6.02432 -35.79488 20972 ft 387 kts 51°
2026-05-07 15:54 -6.00811 -35.77341 20554 ft 385 kts 51°
2026-05-07 15:54 -5.99196 -35.75215 20187 ft 382 kts 51°
2026-05-07 15:54 -5.97589 -35.73091 19805 ft 380 kts 51°
2026-05-07 15:54 -5.95995 -35.70974 19436 ft 378 kts 51°
2026-05-07 15:55 -5.94398 -35.68948 18853 ft 369 kts 49°
2026-05-07 15:55 -5.92745 -35.66960 17543 ft 373 kts 50°
2026-05-07 15:55 -5.91144 -35.64933 16581 ft 364 kts 52°
2026-05-07 15:55 -5.89586 -35.62954 15499 ft 360 kts 51°
2026-05-07 15:56 -5.87983 -35.61032 14476 ft 356 kts 50°
2026-05-07 15:56 -5.86411 -35.59142 13511 ft 350 kts 53°
2026-05-07 15:56 -5.84915 -35.57329 12980 ft 316 kts 46°
2026-05-07 15:56 -5.83229 -35.56185 12365 ft 279 kts 23°
2026-05-07 15:57 -5.81463 -35.55701 11632 ft 247 kts 12°
2026-05-07 15:57 -5.79839 -35.55468 10603 ft 230 kts 13°
2026-05-07 15:57 -5.78344 -35.55192 9808 ft 203 kts 16°
2026-05-07 15:57 -5.76943 -35.54931 8309 ft 210 kts 14°
2026-05-07 15:58 -5.75581 -35.54523 7163 ft 195 kts 39°
2026-05-07 15:58 -5.74792 -35.53589 6407 ft 168 kts 72°
2026-05-07 15:58 -5.74548 -35.52488 5388 ft 162 kts 96°
2026-05-07 15:58 -5.74663 -35.51378 4451 ft 159 kts 102°
2026-05-07 15:59 -5.74781 -35.50275 3550 ft 158 kts 101°
2026-05-07 15:59 -5.74952 -35.49194 2663 ft 158 kts 103°
2026-05-07 15:59 -5.75125 -35.48130 2020 ft 143 kts 103°
2026-05-07 15:59 -5.75277 -35.47105 1763 ft 160 kts 104°
2026-05-07 16:00 -5.75474 -35.46016 1067 ft 156 kts 105°
2026-05-07 16:00 -5.75653 -35.45004 914 ft 145 kts 98°
2026-05-07 16:00 -5.75787 -35.43958 974 ft 150 kts 100°
2026-05-07 16:00 -5.75929 -35.42917 959 ft 142 kts 103°
2026-05-07 16:01 -5.76094 -35.41971 970 ft 141 kts 103°
2026-05-07 16:01 -5.76273 -35.40989 906 ft 149 kts 102°
2026-05-07 16:01 -5.76417 -35.40026 694 ft 131 kts 103°
2026-05-07 16:01 -5.76564 -35.39106 584 ft 133 kts 103°
2026-05-07 16:02 -5.76735 -35.38142 405 ft 140 kts 102°
2026-05-07 16:02 -5.76888 -35.37216 300 ft 121 kts 99°
2026-05-07 16:02 -5.76981 -35.36648 281 ft 37 kts 99°
2026-05-07 16:02 -5.77009 -35.36481 281 ft 21 kts 99°
2026-05-07 16:03 -5.77030 -35.36338 279 ft 20 kts 97°
2026-05-07 16:03 -5.77027 -35.36201 278 ft 19 kts 81°
2026-05-07 16:03 -5.76991 -35.36073 278 ft 19 kts 68°
2026-05-07 16:03 -5.76907 -35.36047 280 ft 13 kts 316°
2026-05-07 16:04 -5.76874 -35.36134 278 ft 14 kts 279°
2026-05-07 16:04 -5.76863 -35.36236 279 ft 15 kts 276°
2026-05-07 16:04 -5.76848 -35.36347 279 ft 17 kts 279°
2026-05-07 16:04 -5.76825 -35.36464 280 ft 18 kts 282°
2026-05-07 16:05 -5.76794 -35.36591 280 ft 19 kts 285°
2026-05-07 16:05 -5.76761 -35.36725 281 ft 20 kts 282°
2026-05-07 16:05 -5.76700 -35.36854 283 ft 21 kts 307°
2026-05-07 16:05 -5.76609 -35.36976 281 ft 21 kts 307°
2026-05-07 16:06 -5.76564 -35.37104 282 ft 19 kts 285°
2026-05-07 16:06 -5.76522 -35.37138 282 ft 10 kts 346°
2026-05-07 16:06 -5.76480 -35.37135 282 ft 0 kts